Weather History for Covington, KY

Change the Weather History Date:

Wednesday, March 13, 2013

  Actual Average Record
Temperature  
Mean Temperature 30 °F 42 °F  
Max Temperature 34 °F 52 °F 79 °F (2007)
Min Temperature 26 °F 33 °F 5 °F (1960)
Degree Days  
Heating Degree Days 35 23  
Month to date heating degree days 374 321  
Since 1 July heating degree days 4084 4156  
Cooling Degree Days 0 0  
Month to date cooling degree days 0 0  
Year to date cooling degree days 0 0  
Moisture  
Dew Point 23 °F    
Average Humidity 79    
Maximum Humidity 100    
Minimum Humidity 58    
Precipitation  
Precipitation 0.05 in 0.12 in 4.59 in (1907)
Month to date precipitation 2.09 1.48  
Year to date precipitation 7.69 7.29  
Snow  
Snow 0.60 in 0.10 in 8.00 in (1937)
Month to date snowfall 5.5 1.6  
Since 1 July snowfall 21.9 20.2  
Snow Depth 0.00 in    
Sea Level Pressure  
Sea Level Pressure 30.16 in    
Wind  
Wind Speed 14 mph (West)    
Max Wind Speed 25 mph    
Max Gust Speed 35 mph    
Visibility 7 miles    
Events Snow    
T = Trace of Precipitation, MM = Missing Value Source: NWS Daily Summary

Daily Weather History Graph

Daily Weather History Graph

Search for Another Location

Airport:

Trip Planner

Search our weather history database for the weather conditions in past years. The results will help you decide how hot, cold, wet, or windy it might be!

Date:

Astronomy

Mar. 13, 2013 Rise Set
Actual Time 7:52 AM EDT 7:43 PM EDT
Civil Twilight 7:26 AM EDT 8:10 PM EDT
Nautical Twilight 6:55 AM EDT 8:41 PM EDT
Astronomical Twilight 6:23 AM EDT 9:12 PM EDT
Moon 8:33 AM EDT (3/13) 9:58 PM EDT (3/13)
Length of Visible Light 12h 44m
Length of Day
11h 51m
Waxing Crescent, 4% of the Moon is Illuminated
Mar 13
Waxing Crescent
Mar 19
First Quarter
Mar 27
Full
Apr 3
Last Quarter
Apr 10
New

Hourly Weather History & Observations

Time (EDT) Temp. Windchill Dew Point Humidity Pressure Visibility Wind Dir Wind Speed Gust Speed Precip Events Conditions
12:19 AM 33.8 °F 26.4 °F 33.8 °F 100% 30.05 in 10.0 mi West 9.2 mph - 0.00 in   Mostly Cloudy
12:52 AM 33.1 °F 25.5 °F 32.0 °F 96% 30.07 in 10.0 mi West 9.2 mph - 0.00 in   Mostly Cloudy
1:52 AM 30.9 °F 26.2 °F 30.0 °F 96% 30.06 in 9.0 mi South 4.6 mph - N/A   Partly Cloudy
2:52 AM 32.0 °F 27.5 °F 30.9 °F 96% 30.04 in 10.0 mi SSW 4.6 mph - N/A   Overcast
3:52 AM 33.8 °F 27.0 °F 30.2 °F 87% 30.02 in 5.0 mi WSW 8.1 mph - N/A Snow Light Snow
4:17 AM 32.0 °F 23.0 °F 30.2 °F 93% 30.02 in 2.0 mi West 11.5 mph 20.7 mph 0.01 in Snow Light Snow
4:34 AM 32.0 °F 21.2 °F 28.4 °F 87% 30.02 in 3.0 mi West 16.1 mph - N/A Snow Light Snow
4:52 AM 30.9 °F 20.7 °F 28.9 °F 92% 30.03 in 6.0 mi West 13.8 mph - 0.01 in Snow Light Snow
5:52 AM 30.9 °F 21.2 °F 28.0 °F 89% 30.03 in 6.0 mi West 12.7 mph 19.6 mph 0.00 in Snow Light Snow
6:15 AM 30.2 °F 18.1 °F 28.4 °F 93% 30.03 in 2.5 mi NW 18.4 mph 24.2 mph 0.00 in Snow Light Snow
6:18 AM 30.2 °F 18.5 °F 28.4 °F 93% 30.03 in 1.5 mi WNW 17.3 mph 25.3 mph 0.00 in Snow Light Snow
6:29 AM 28.4 °F 14.7 °F 26.6 °F 93% 30.04 in 0.8 mi NW 21.9 mph 27.6 mph 0.00 in Snow Light Snow
6:39 AM 26.6 °F 13.1 °F 24.8 °F 93% 30.04 in 1.5 mi WNW 19.6 mph 27.6 mph 0.01 in Snow Light Snow
6:52 AM 28.0 °F 14.6 °F 23.0 °F 81% 30.07 in 1.5 mi WNW 20.7 mph 28.8 mph 0.01 in Snow Light Snow
6:54 AM 28.4 °F 15.4 °F 21.2 °F 74% 30.05 in 4.0 mi WNW 19.6 mph 28.8 mph 0.00 in Snow Light Snow
7:04 AM 28.4 °F 15.8 °F 21.2 °F 74% 30.06 in 8.0 mi WNW 18.4 mph 26.5 mph 0.00 in Snow Light Snow
7:52 AM 27.0 °F 13.5 °F 17.1 °F 66% 30.09 in 10.0 mi WNW 19.6 mph 28.8 mph 0.00 in   Mostly Cloudy
8:52 AM 27.0 °F 14.3 °F 17.1 °F 66% 30.12 in 10.0 mi WNW 17.3 mph - N/A   Partly Cloudy
9:52 AM 28.0 °F 14.9 °F 19.0 °F 69% 30.15 in 10.0 mi WNW 19.6 mph 25.3 mph N/A   Scattered Clouds
10:52 AM 28.9 °F 17.3 °F 19.0 °F 67% 30.17 in 10.0 mi WNW 16.1 mph 27.6 mph N/A   Mostly Cloudy
11:52 AM 30.0 °F 18.7 °F 21.0 °F 69% 30.19 in 9.0 mi West 16.1 mph - 0.00 in Snow Light Snow
12:09 PM 28.4 °F 15.8 °F 21.2 °F 74% 30.19 in 2.5 mi West 18.4 mph 28.8 mph 0.00 in Snow Light Snow
12:13 PM 28.4 °F 15.8 °F 21.2 °F 74% 30.19 in 5.0 mi West 18.4 mph 27.6 mph 0.00 in Snow Light Snow
12:22 PM 28.4 °F 14.7 °F 21.2 °F 74% 30.19 in 3.0 mi West 21.9 mph 26.5 mph 0.00 in Snow Light Snow
12:32 PM 30.2 °F 17.4 °F 21.2 °F 69% 30.19 in 8.0 mi West 20.7 mph - 0.00 in Snow Light Snow
12:52 PM 28.9 °F 16.1 °F 19.9 °F 69% 30.22 in 7.0 mi WNW 19.6 mph 26.5 mph 0.00 in Snow Light Snow
1:03 PM 28.4 °F 15.8 °F 21.2 °F 74% 30.20 in 4.0 mi West 18.4 mph 27.6 mph 0.00 in Snow Light Snow
1:33 PM 32.0 °F 19.8 °F 21.2 °F 64% 30.20 in 9.0 mi West 20.7 mph 26.5 mph 0.00 in   Mostly Cloudy
1:52 PM 30.9 °F 18.4 °F 19.0 °F 61% 30.23 in 6.0 mi WNW 20.7 mph 26.5 mph 0.00 in Snow Light Snow
2:52 PM 30.0 °F 17.2 °F 21.9 °F 72% 30.24 in 3.0 mi WNW 20.7 mph 29.9 mph 0.00 in Snow Light Snow
2:59 PM 28.4 °F 15.4 °F 24.8 °F 86% 30.22 in 1.0 mi WNW 19.6 mph 26.5 mph 0.00 in Snow Light Snow
3:02 PM 28.4 °F 15.8 °F 24.8 °F 86% 30.22 in 3.0 mi WNW 18.4 mph 26.5 mph 0.00 in Snow Light Snow
3:07 PM 28.4 °F 18.0 °F 24.8 °F 86% 30.22 in 9.0 mi West 12.7 mph - 0.00 in Snow Light Snow
3:52 PM 32.0 °F 20.1 °F 18.0 °F 56% 30.24 in 10.0 mi WNW 19.6 mph - 0.00 in   Overcast
4:52 PM 32.0 °F 20.8 °F 19.0 °F 59% 30.26 in 10.0 mi WNW 17.3 mph 26.5 mph 0.00 in   Mostly Cloudy
5:52 PM 30.9 °F 19.8 °F 18.0 °F 59% 30.27 in 10.0 mi WNW 16.1 mph 24.2 mph 0.00 in   Overcast
6:52 PM 30.9 °F 20.2 °F 19.0 °F 61% 30.29 in 10.0 mi WNW 15.0 mph - N/A   Overcast
7:38 PM 30.2 °F 19.3 °F 19.4 °F 64% 30.28 in 4.0 mi West 15.0 mph 20.7 mph 0.00 in Snow Light Snow
7:52 PM 28.9 °F 18.6 °F 23.0 °F 78% 30.31 in 8.0 mi WNW 12.7 mph - 0.00 in Snow Light Snow
8:52 PM 28.9 °F 18.6 °F 21.9 °F 75% 30.32 in 9.0 mi WNW 12.7 mph 23.0 mph 0.00 in Snow Light Snow
9:52 PM 27.0 °F 17.3 °F 23.0 °F 85% 30.33 in 10.0 mi West 10.4 mph - 0.00 in   Scattered Clouds
10:52 PM 27.0 °F 18.7 °F 21.9 °F 81% 30.33 in 10.0 mi West 8.1 mph - N/A   Partly Cloudy
11:52 PM 26.1 °F 19.4 °F 21.9 °F 84% 30.34 in 10.0 mi WSW 5.8 mph - N/A   Clear